SCP
0 0 0 0 0 0 0 0 0 0 0 1 1 1 1 1 1 1 1 0 0 0 0 0 0 0 0 0 0 1 1 1 1 1 2 2 2 1
0 0 0 0 0 0 0 0 0 0 0 0 1 1 1 1 1 1 1 0 0 0 0 0 0 0 0 0 0 1 1 1 1 1 1 1 1 1
0 0 0 0 0 0 0 0 0 0 0 0 1 1 1 1 1 1 1 0 0 0 0 0 0 0 0 0 0 0 0 0 0 0 1 1 1 1
0 0 0 0 0 0 0 0 0 0 0 0 0 1 1 1 1 1 0 0 0 0 0 0 0 0 0 0 0 0 0 0 0 0 0 0 0 0
0 0 0 0 1 1 1 1 0 0 0 0 0 0 1 1 1 1 0 0 0 0 0 0 0 0 0 0 0 0 0 0 0 0 0 0 0 0
1 1 1 1 1 1 1 1 1 1 1 0 0 0 0 1 1 1 0 0 0 0 0 0 0 0 0 0 0 0 0 0 0 0 0 0 0 0
1 1 1 1 1 1 1 1 1 1 1 1 1 1 1 1 1 1 0 0 0 0 1 0 0 0 0 0 0 0 0 0 0 0 0 0 0 0
2 2 1 1 1 1 0 0 0 1 1 1 1 1 1 1 1 1 1 0 0 1 1 0 0 0 0 0 0 0 0 0 0 0 0 0 0 0
1 1 1 1 1 1 1 1 1 1 0 0 0 1 1 1 1 1 1 1 0 0 0 0 0 0 0 0 0 0 0 0 0 0 0 0 0 0
1 1 1 1 1 1 1 1 2 1 1 0 0 0 1 1 1 1 1 1 0 0 0 0 0 0 0 0 0 0 0 0 0 0 0 0 0 0
1 1 1 1 1 1 1 2 2 2 2 1 0 0 0 0 0 0 0 0 0 0 1 1 0 0 0 0 0 0 0 0 0 0 0 0 0 0
1 1 1 1 0 0 0 1 2 2 2 2 1 1 0 0 0 0 0 0 0 0 0 1 1 1 0 0 0 0 0 0 0 0 0 0 0 0
1 1 0 0 0 0 0 0 1 1 2 2 2 2 1 1 1 1 1 0 0 0 0 1 1 1 0 0 0 1 0 0 0 0 0 0 0 0
0 0 0 0 0 0 0 0 0 0 1 1 2 2 1 1 1 1 1 1 1 0 0 1 1 1 0 0 0 1 1 0 0 0 0 0 0 0
0 0 0 0 0 0 0 0 0 0 0 1 1 1 1 1 1 1 1 1 1 1 1 1 1 1 0 0 0 0 0 1 1 1 1 1 1 0
0 0 0 0 0 0 0 0 0 0 0 0 1 1 1 1 1 1 1 1 1 1 1 1 1 1 0 0 0 0 0 1 1 1 1 1 1 1
0 0 0 1 1 1 1 1 1 1 1 1 1 1 1 1 1 1 1 1 1 1 1 1 1 1 1 0 0 0 0 0 0 1 1 1 1 1
0 0 0 1 1 1 1 1 1 2 2 2 2 2 1 1 1 1 1 1 1 1 1 1 1 1 1 0 0 0 0 0 0 0 1 1 1 1
0 0 0 1 1 1 1 1 2 2 2 2 2 2 1 1 1 1 1 1 1 1 1 1 1 1 0 0 0 0 0 0 0 0 1 0 0 0
0 1 1 1 1 1 1 2 2 2 2 2 1 1 1 1 1 1 1 1 1 1 1 1 1 0 0 0 0 0 0 0 0 0 0 0 0 0
1 1 1 1 1 1 2 3 3 2 2 1 1 1 1 1 1 1 1 1 1 1 1 1 1 1 0 0 0 0 0 0 0 0 0 0 0 0
1 1 1 1 1 1 2 2 2 2 2 1 1 1 1 1 1 0 1 1 1 0 0 0 1 1 0 0 0 0 0 0 0 0 0 0 0 0
2 1 1 1 1 1 1 2 2 2 2 1 1 1 1 1 1 0 1 1 1 0 0 0 0 1 0 0 0 0 0 0 0 0 0 0 0 0
Wind_Speed
2 2 2 3 2 2 2 2 2 4 4 3 2 2 1 1 3 1 1 5 8 9 10 10 11 11 12 12 13 14 14 15 16 17 18 18 18 19
1 0 2 2 3 3 2 2 2 2 3 3 3 2 3 4 1 2 3 6 9 12 12 12 11 11 11 12 13 13 13 14 15 16 17 17 17 18
2 1 1 2 2 3 3 3 2 2 3 4 3 3 4 4 3 3 5 5 6 12 13 13 13 13 12 12 13 13 14 14 14 15 16 16 17 17
2 2 2 2 1 2 2 3 3 3 3 5 4 4 4 4 4 5 6 7 5 8 12 13 13 13 13 13 13 13 13 14 14 14 15 16 17 18
2 2 3 3 3 2 3 3 3 4 3 4 5 4 4 4 4 5 6 5 7 8 9 12 13 14 14 14 14 14 14 14 14 14 15 15 16 17
3 3 4 4 4 3 4 4 3 4 4 4 4 4 4 4 3 3 4 3 4 7 6 6 10 14 15 15 15 15 15 15 15 14 15 15 16 16
4 4 5 6 5 4 5 3 3 3 4 4 4 4 3 3 3 3 4 4 4 4 4 4 4 5 8 12 15 16 16 16 16 16 15 15 15 16
5 5 6 6 8 11 11 9 7 6 5 4 5 5 5 5 4 4 4 5 5 3 4 5 5 5 5 6 11 16 17 17 17 17 16 16 16 16
6 5 7 7 4 5 8 12 12 14 13 8 8 8 7 6 5 5 5 6 6 5 5 7 6 6 6 8 12 14 17 18 18 18 17 17 16 16
7 7 7 7 7 5 5 6 7 8 10 11 10 11 10 8 6 6 7 7 7 7 7 7 6 6 7 6 9 12 14 16 17 17 17 17 17 16
9 9 9 8 9 10 7 7 7 7 10 13 13 14 14 13 9 5 6 7 8 7 5 6 6 6 5 5 7 11 13 15 16 17 17 17 17 15
7 8 11 12 11 11 8 7 8 8 8 9 8 10 11 12 14 11 9 8 9 7 5 5 5 4 5 5 5 4 5 10 14 15 16 16 15 10
6 5 4 5 8 10 9 8 11 9 7 7 7 8 7 7 8 9 10 9 9 9 6 4 4 4 5 5 5 5 5 5 6 8 13 16 16 13
7 6 4 4 5 8 9 12 14 10 7 8 8 7 7 7 7 7 9 10 10 11 8 7 6 6 6 8 7 5 5 5 5 6 6 10 13 16
8 10 10 11 10 9 14 16 12 8 8 9 9 8 7 7 6 6 6 8 9 10 10 9 9 8 7 8 8 7 6 5 5 5 5 6 6 6
9 10 12 15 14 14 12 10 9 9 9 9 8 8 6 6 6 5 5 5 5 6 8 9 10 10 9 9 8 8 7 6 5 5 5 5 5 6
3 5 7 8 7 7 7 8 8 8 9 9 8 8 7 7 6 5 5 4 6 7 6 5 7 8 9 8 8 8 7 7 6 6 5 5 5 6
2 6 8 8 9 8 7 6 6 6 6 6 7 7 7 7 6 5 5 6 7 7 6 5 4 4 5 7 10 10 8 8 6 6 6 6 6 5
5 8 8 8 8 7 7 6 6 5 5 5 6 6 6 6 6 6 6 6 7 6 6 5 5 5 7 9 7 10 9 7 6 6 6 6 7 6
7 8 8 7 7 7 6 6 5 5 5 5 5 5 5 5 6 7 7 7 6 6 6 5 6 6 8 8 6 6 9 8 7 7 6 5 5 5
7 7 6 6 6 5 5 5 5 5 6 5 5 5 5 5 6 7 7 8 7 6 7 7 7 8 6 5 6 6 6 9 9 6 5 5 5 4
6 6 5 6 5 5 5 5 5 6 6 5 5 5 5 5 6 7 7 6 6 6 7 6 5 5 5 6 7 8 7 5 6 9 9 7 5 5
5 5 5 6 6 4 5 5 7 6 5 5 5 5 5 5 5 6 7 6 6 7 6 6 5 5 5 6 7 7 8 6 4 4 5 8 11 10
Wind_Direction
342 6 344 328 339 340 330 328 322 318 319 332 0 1 6 86 154 228 257 223 226 234 240 243 245 244 240 235 233 232 231 233 233 230 227 226 226 226
251 335 335 324 342 330 326 322 311 304 302 319 320 341 2 332 300 317 304 269 242 239 239 238 240 241 239 235 231 229 229 230 230 228 226 223 224 225
302 298 284 293 327 326 320 321 314 314 305 305 314 321 317 296 287 276 273 259 247 242 237 234 233 235 236 235 233 231 230 230 229 229 227 224 224 225
277 296 294 289 280 277 303 303 301 289 275 286 294 292 291 284 266 259 273 277 272 258 236 229 228 231 232 232 233 233 232 232 231 230 229 228 226 225
280 279 279 284 282 284 291 292 300 303 299 289 289 284 278 279 276 273 274 275 279 278 244 230 229 231 232 232 233 233 233 232 232 232 231 230 230 229
274 270 270 269 269 273 276 273 281 292 288 281 276 278 274 283 288 284 289 286 289 293 284 253 235 230 232 232 233 233 233 233 233 234 234 233 232 230
263 261 260 253 243 246 267 288 300 296 298 296 295 298 297 316 311 308 303 300 288 286 292 287 266 240 233 235 236 236 233 231 231 231 231 232 232 231
275 270 272 246 231 231 238 244 246 257 270 279 286 288 295 302 308 305 303 304 299 305 318 303 298 284 259 238 232 230 231 231 230 229 228 228 229 229
281 277 279 282 265 231 230 236 243 246 241 246 262 267 275 281 289 296 292 290 284 287 292 284 278 276 271 272 254 235 228 228 227 227 227 226 227 229
264 263 260 263 265 259 262 254 243 245 240 234 239 248 254 256 257 264 270 276 271 265 254 266 269 265 268 266 268 252 235 230 227 227 227 227 227 228
254 255 250 248 240 237 242 254 262 265 266 257 237 240 247 254 253 263 265 269 274 272 255 256 266 271 272 270 265 258 243 232 228 228 228 228 227 227
260 255 248 245 241 234 234 245 255 260 268 281 271 257 251 250 243 233 241 253 264 270 259 256 267 277 282 266 266 267 252 243 236 234 232 230 226 223
269 273 271 256 239 238 236 246 252 260 272 272 271 265 254 245 241 231 224 231 246 256 262 263 269 270 269 279 281 274 257 244 230 235 235 233 225 212
260 270 275 281 260 249 243 249 254 261 265 266 264 263 261 257 248 238 229 226 231 243 255 258 262 261 267 274 275 268 262 254 241 232 226 222 223 222
257 272 286 284 277 263 250 249 250 248 249 254 258 259 258 258 256 249 240 234 235 241 248 241 244 250 249 258 266 267 270 268 256 244 234 223 213 207
257 271 275 268 260 256 260 249 233 236 239 248 253 256 259 259 254 250 249 246 249 252 244 240 240 241 248 250 254 260 259 258 257 251 243 239 226 214
286 271 272 271 264 256 248 242 237 231 232 240 248 254 257 260 259 253 249 251 258 263 262 249 240 236 239 244 252 253 255 255 251 246 242 246 242 229
266 270 271 272 273 273 272 267 256 247 242 242 245 250 257 262 262 259 252 250 255 258 260 261 262 261 257 250 235 247 251 252 251 248 240 243 252 244
241 262 266 268 271 273 273 275 276 269 259 256 256 254 254 259 264 264 260 257 254 254 255 254 253 254 262 267 254 228 238 248 249 249 241 236 246 248
242 256 263 266 270 274 279 279 280 283 275 270 266 261 259 262 266 266 262 260 261 259 260 256 251 247 249 259 267 262 234 239 244 246 246 242 247 252
264 265 266 268 271 276 277 276 277 275 272 271 271 265 259 262 266 268 269 269 265 263 263 260 254 248 250 253 262 264 253 235 235 237 237 238 245 244
268 277 285 288 286 285 283 280 281 280 276 270 267 265 262 262 267 271 272 271 268 264 265 266 261 256 250 251 258 265 266 257 242 242 243 236 230 234
278 285 293 298 301 301 302 302 296 286 280 278 277 278 276 273 270 269 268 267 268 270 268 269 264 257 254 252 257 262 263 260 252 244 249 242 232 234